| time (UTC) | temp F | wind direction | speed MPH | gust MPH | rain 1hr in | rain 24hr in | rain mn in | humidity % | barometer mb |
| 20260508111451 | 64 | 45 | 1.0 | 4.0 | 0.00 | 0.91 | 0.00 | 76 | 1015.8 |
| 20260508110428 | 64 | 58 | 2.0 | 4.0 | 0.00 | 0.91 | 0.00 | 75 | 1015.8 |
| 20260508105425 | 64 | 0.0 | 2.0 | 0.00 | 0.91 | 0.00 | 77 | 1015.9 | |
| 20260508104443 | 63 | 63 | 3.0 | 4.0 | 0.00 | 0.91 | 0.00 | 77 | 1016.0 |
| 20260508103418 | 63 | 52 | 2.0 | 2.0 | 0.00 | 0.91 | 0.00 | 78 | 1016.1 |
| 20260508102415 | 64 | 62 | 3.0 | 6.0 | 0.00 | 0.91 | 0.00 | 77 | 1016.2 |
| 20260508101512 | 64 | 45 | 1.0 | 2.0 | 0.00 | 0.91 | 0.00 | 75 | 1016.4 |
| 20260508100509 | 64 | 315 | 1.0 | 2.0 | 0.00 | 0.91 | 0.00 | 76 | 1016.2 |
| 20260508095525 | 63 | 23 | 1.0 | 4.0 | 0.00 | 0.91 | 0.00 | 75 | 1016.0 |
| 20260508094502 | 64 | 17 | 2.0 | 4.0 | 0.00 | 0.91 | 0.00 | 74 | 1015.7 |
| 20260508093459 | 65 | 113 | 3.0 | 4.0 | 0.00 | 0.91 | 0.00 | 72 | 1015.9 |
| 20260508092455 | 64 | 68 | 2.0 | 2.0 | 0.00 | 0.91 | 0.00 | 71 | 1015.9 |
| 20260508091452 | 64 | 293 | 0.0 | 2.0 | 0.00 | 0.91 | 0.00 | 71 | 1016.0 |
| 20260508090449 | 63 | 0.0 | 2.0 | 0.00 | 0.91 | 0.00 | 73 | 1015.9 | |
| 20260508085446 | 63 | 263 | 1.0 | 2.0 | 0.00 | 0.91 | 0.00 | 73 | 1016.1 |
| 20260508084443 | 62 | 253 | 3.0 | 4.0 | 0.00 | 0.91 | 0.00 | 74 | 1016.0 |
| 20260508083440 | 62 | 270 | 0.0 | 2.0 | 0.00 | 0.91 | 0.00 | 73 | 1015.6 |
| 20260508082519 | 61 | 0.0 | 0.0 | 0.00 | 0.91 | 0.00 | 77 | 1015.3 | |
| 20260508081454 | 60 | 270 | 2.0 | 4.0 | 0.00 | 0.91 | 0.00 | 77 | 1015.4 |
| 20260508080430 | 59 | 308 | 1.0 | 2.0 | 0.00 | 0.91 | 0.00 | 79 | 1015.4 |
| 20260508075428 | 58 | 289 | 4.0 | 6.0 | 0.00 | 0.91 | 0.00 | 79 | 1015.6 |
| 20260508074443 | 58 | 255 | 2.0 | 4.0 | 0.00 | 0.91 | 0.00 | 81 | 1015.6 |
| 20260508073420 | 57 | 315 | 3.0 | 4.0 | 0.00 | 0.91 | 0.00 | 83 | 1015.5 |
| 20260508072417 | 57 | 255 | 4.0 | 6.0 | 0.00 | 0.91 | 0.00 | 84 | 1015.7 |
| 20260508071515 | 57 | 293 | 1.0 | 2.0 | 0.00 | 0.91 | 0.00 | 85 | 1015.7 |
| 20260508070512 | 56 | 266 | 3.0 | 4.0 | 0.00 | 0.91 | 0.00 | 86 | 1015.5 |
| 20260508065507 | 55 | 277 | 4.0 | 7.0 | 0.00 | 0.91 | 0.00 | 86 | 1015.6 |
| 20260508064504 | 55 | 249 | 3.0 | 6.0 | 0.00 | 0.91 | 0.00 | 86 | 1015.5 |
| 20260508063501 | 55 | 225 | 3.0 | 4.0 | 0.00 | 0.91 | 0.00 | 86 | 1015.4 |
| 20260508062458 | 55 | 277 | 4.0 | 6.0 | 0.00 | 0.91 | 0.00 | 86 | 1015.2 |
| 20260508061536 | 55 | 255 | 4.0 | 6.0 | 0.00 | 0.91 | 0.00 | 86 | 1015.0 |
| 20260508060451 | 54 | 248 | 4.0 | 4.0 | 0.00 | 0.91 | 0.00 | 86 | 1015.0 |
| 20260508055448 | 54 | 256 | 3.0 | 6.0 | 0.00 | 0.91 | 0.00 | 87 | 1014.9 |
| 20260508054446 | 55 | 287 | 2.0 | 2.0 | 0.00 | 0.91 | 0.00 | 87 | 1014.8 |
| 20260508053442 | 54 | 270 | 3.0 | 4.0 | 0.00 | 0.91 | 0.00 | 88 | 1014.5 |
| 20260508052438 | 53 | 283 | 3.0 | 6.0 | 0.00 | 0.91 | 0.00 | 88 | 1014.6 |
| 20260508051435 | 53 | 276 | 3.0 | 4.0 | 0.00 | 0.91 | 0.00 | 89 | 1014.4 |
| 20260508050432 | 53 | 255 | 3.0 | 6.0 | 0.00 | 0.91 | 0.00 | 89 | 1014.1 |
| 20260508045429 | 53 | 246 | 4.0 | 6.0 | 0.00 | 0.91 | 0.00 | 89 | 1014.2 |
| 20260508044425 | 53 | 248 | 5.0 | 8.0 | 0.00 | 0.91 | 0.00 | 89 | 1014.2 |
| 20260508043424 | 53 | 255 | 3.0 | 4.0 | 0.00 | 0.91 | 0.00 | 89 | 1014.0 |
| 20260508042419 | 54 | 270 | 2.0 | 4.0 | 0.00 | 0.91 | 0.00 | 89 | 1013.9 |
| 20260508041416 | 53 | 270 | 1.0 | 2.0 | 0.00 | 0.91 | 0.00 | 90 | 1014.0 |
| 20260508040514 | 54 | 270 | 1.0 | 2.0 | 0.00 | 0.91 | 0.00 | 90 | 1013.9 |
| 20260508035511 | 54 | 270 | 1.0 | 4.0 | 0.00 | 0.91 | 0.00 | 90 | 1013.9 |
| 20260508034506 | 54 | 270 | 3.0 | 6.0 | 0.00 | 0.91 | 0.00 | 90 | 1013.8 |
| 20260508033503 | 54 | 280 | 4.0 | 6.0 | 0.00 | 0.91 | 0.00 | 90 | 1014.0 |
| 20260508032500 | 54 | 284 | 3.0 | 4.0 | 0.00 | 0.91 | 0.00 | 90 | 1014.0 |
| 20260508031456 | 54 | 261 | 3.0 | 4.0 | 0.00 | 0.91 | 0.00 | 90 | 1014.2 |
| 20260508030454 | 54 | 257 | 3.0 | 4.0 | 0.00 | 0.91 | 0.00 | 90 | 1014.3 |
| 20260508025450 | 54 | 234 | 2.0 | 2.0 | 0.00 | 0.91 | 0.00 | 90 | 1014.3 |
| 20260508024447 | 54 | 255 | 2.0 | 2.0 | 0.00 | 0.91 | 0.00 | 90 | 1014.4 |
| 20260508023444 | 55 | 248 | 2.0 | 4.0 | 0.00 | 0.91 | 0.00 | 90 | 1014.6 |
| 20260508022501 | 55 | 0.0 | 0.0 | 0.00 | 0.91 | 0.00 | 90 | 1014.5 | |
| 20260508021438 | 55 | 270 | 0.0 | 2.0 | 0.00 | 0.91 | 0.00 | 90 | 1014.3 |
| 20260508020434 | 55 | 255 | 2.0 | 4.0 | 0.00 | 0.91 | 0.00 | 90 | 1014.5 |
| 20260508015431 | 55 | 253 | 3.0 | 4.0 | 0.00 | 0.91 | 0.00 | 90 | 1014.6 |
| 20260508014448 | 55 | 270 | 3.0 | 6.0 | 0.00 | 0.91 | 0.00 | 90 | 1014.7 |
| 20260508013426 | 55 | 270 | 3.0 | 4.0 | 0.00 | 0.91 | 0.00 | 89 | 1014.7 |
| 20260508012423 | 56 | 270 | 2.0 | 4.0 | 0.00 | 0.91 | 0.00 | 89 | 1014.8 |
| 20260508011458 | 56 | 259 | 2.0 | 4.0 | 0.00 | 0.91 | 0.00 | 90 | 1015.0 |
| 20260508010415 | 55 | 276 | 2.0 | 4.0 | 0.00 | 0.91 | 0.00 | 91 | 1015.0 |
| 20260508005532 | 55 | 270 | 4.0 | 6.0 | 0.00 | 0.91 | 0.00 | 93 | 1015.1 |
| 20260508004509 | 55 | 270 | 1.0 | 2.0 | 0.00 | 0.91 | 0.00 | 94 | 1015.0 |
| 20260508003505 | 55 | 284 | 3.0 | 7.0 | 0.00 | 0.91 | 0.00 | 94 | 1015.2 |
| 20260508002502 | 55 | 263 | 4.0 | 4.0 | 0.00 | 0.91 | 0.00 | 95 | 1015.5 |
| 20260508001500 | 55 | 262 | 3.0 | 4.0 | 0.00 | 0.91 | 0.00 | 95 | 1015.5 |
| 20260508000517 | 55 | 248 | 3.0 | 4.0 | 0.00 | 0.91 | 0.00 | 95 | 1015.7 |
| 20260507235453 | 55 | 225 | 2.0 | 4.0 | 0.00 | 0.91 | 0.00 | 95 | 1015.5 |
| 20260507234449 | 55 | 255 | 3.0 | 4.0 | 0.00 | 0.91 | 0.00 | 95 | 1015.6 |
| 20260507233447 | 56 | 248 | 2.0 | 4.0 | 0.00 | 0.91 | 0.00 | 95 | 1015.6 |
| 20260507232443 | 56 | 270 | 2.0 | 4.0 | 0.00 | 0.91 | 0.00 | 95 | 1015.7 |
| 20260507231439 | 56 | 270 | 3.0 | 4.0 | 0.00 | 0.91 | 0.00 | 95 | 1015.8 |
| 20260507230436 | 56 | 248 | 2.0 | 4.0 | 0.00 | 0.91 | 0.00 | 95 | 1015.7 |
| 20260507225433 | 56 | 238 | 2.0 | 4.0 | 0.00 | 0.91 | 0.00 | 95 | 1015.9 |
| 20260507224430 | 56 | 293 | 2.0 | 4.0 | 0.00 | 0.91 | 0.00 | 95 | 1016.0 |
| 20260507223427 | 56 | 293 | 1.0 | 2.0 | 0.00 | 0.91 | 0.00 | 95 | 1016.0 |
| 20260507222423 | 56 | 259 | 2.0 | 6.0 | 0.00 | 0.91 | 0.00 | 95 | 1016.1 |
| 20260507221420 | 56 | 270 | 2.0 | 4.0 | 0.00 | 0.91 | 0.00 | 95 | 1016.0 |
| 20260507220417 | 56 | 253 | 3.0 | 4.0 | 0.00 | 0.91 | 0.00 | 95 | 1016.1 |
| 20260507215514 | 56 | 256 | 3.0 | 6.0 | 0.00 | 0.91 | 0.91 | 95 | 1016.0 |
| 20260507214510 | 57 | 248 | 3.0 | 6.0 | 0.00 | 0.91 | 0.91 | 95 | 1015.9 |
| 20260507213508 | 57 | 263 | 4.0 | 6.0 | 0.00 | 0.91 | 0.91 | 95 | 1015.9 |
| 20260507212544 | 57 | 255 | 3.0 | 6.0 | 0.00 | 0.91 | 0.91 | 95 | 1015.8 |
| 20260507211501 | 57 | 248 | 2.0 | 6.0 | 0.00 | 0.91 | 0.91 | 94 | 1015.7 |
| 20260507210459 | 57 | 248 | 3.0 | 4.0 | 0.00 | 0.91 | 0.91 | 94 | 1015.6 |
| 20260507205515 | 57 | 274 | 2.0 | 4.0 | 0.00 | 0.91 | 0.91 | 94 | 1015.4 |
| 20260507204452 | 57 | 327 | 1.0 | 2.0 | 0.00 | 0.91 | 0.91 | 94 | 1015.3 |
| 20260507203449 | 58 | 338 | 1.0 | 2.0 | 0.00 | 0.91 | 0.91 | 94 | 1015.2 |
| 20260507202445 | 58 | 0.0 | 0.0 | 0.00 | 0.91 | 0.91 | 93 | 1015.2 | |
| 20260507201441 | 58 | 0.0 | 0.0 | 0.01 | 0.91 | 0.91 | 93 | 1015.2 | |
| 20260507200438 | 57 | 0.0 | 0.0 | 0.05 | 0.91 | 0.91 | 93 | 1015.1 | |
| 20260507195436 | 58 | 0.0 | 2.0 | 0.06 | 0.91 | 0.91 | 93 | 1015.0 | |
| 20260507194452 | 58 | 0.0 | 2.0 | 0.07 | 0.91 | 0.91 | 93 | 1015.0 | |
| 20260507193428 | 57 | 0.0 | 0.0 | 0.12 | 0.91 | 0.91 | 93 | 1014.9 | |
| 20260507192425 | 57 | 0.0 | 0.0 | 0.12 | 0.91 | 0.91 | 92 | 1014.9 | |
| 20260507191422 | 57 | 0.0 | 2.0 | 0.15 | 0.90 | 0.90 | 92 | 1014.9 | |
| 20260507190419 | 57 | 315 | 0.0 | 2.0 | 0.19 | 0.86 | 0.86 | 91 | 1015.0 |
| 20260507185416 | 57 | 12 | 1.0 | 4.0 | 0.27 | 0.85 | 0.85 | 91 | 1015.3 |
| 20260507184513 | 57 | 300 | 3.0 | 6.0 | 0.63 | 0.84 | 0.84 | 90 | 1015.1 |
| 20260507183509 | 57 | 306 | 3.0 | 4.0 | 0.79 | 0.79 | 0.79 | 90 | 1015.0 |
| 20260507182526 | 57 | 293 | 4.0 | 8.0 | 0.79 | 0.79 | 0.79 | 90 | 1015.1 |
| 20260507181503 | 57 | 263 | 4.0 | 6.0 | 0.74 | 0.74 | 0.74 | 89 | 1014.9 |
| 20260507180500 | 58 | 302 | 5.0 | 9.0 | 0.67 | 0.67 | 0.67 | 88 | 1015.0 |
| 20260507175456 | 58 | 328 | 2.0 | 4.0 | 0.58 | 0.58 | 0.58 | 86 | 1014.9 |
| 20260507174454 | 61 | 24 | 3.0 | 6.0 | 0.21 | 0.21 | 0.21 | 79 | 1014.9 |
| 20260507173450 | 64 | 83 | 3.0 | 6.0 | 0.00 | 0.00 | 0.00 | 67 | 1014.5 |
| 20260507172609 | 64 | 301 | 4.0 | 11.0 | 0.00 | 0.00 | 0.00 | 67 | 1014.5 |
| 20260507171505 | 66 | 45 | 3.0 | 6.0 | 0.00 | 0.00 | 0.00 | 75 | 1014.3 |
| 20260507170440 | 66 | 68 | 1.0 | 2.0 | 0.00 | 0.00 | 0.00 | 75 | 1014.1 |
| 20260507165438 | 66 | 60 | 3.0 | 7.0 | 0.00 | 0.00 | 0.00 | 74 | 1014.0 |
| 20260507164434 | 66 | 58 | 2.0 | 4.0 | 0.00 | 0.00 | 0.00 | 74 | 1014.0 |
| 20260507163432 | 66 | 68 | 1.0 | 4.0 | 0.00 | 0.00 | 0.00 | 74 | 1013.8 |
| 20260507162427 | 66 | 68 | 4.0 | 7.0 | 0.00 | 0.00 | 0.00 | 73 | 1013.7 |
| 20260507161445 | 66 | 45 | 5.0 | 8.0 | 0.00 | 0.00 | 0.00 | 74 | 1013.4 |
| 20260507160441 | 66 | 45 | 4.0 | 8.0 | 0.00 | 0.00 | 0.00 | 75 | 1013.4 |
| 20260507155417 | 66 | 60 | 3.0 | 7.0 | 0.00 | 0.00 | 0.00 | 74 | 1013.4 |
| 20260507154514 | 66 | 59 | 3.0 | 6.0 | 0.00 | 0.00 | 0.00 | 72 | 1013.4 |
| 20260507153511 | 65 | 53 | 6.0 | 11.0 | 0.00 | 0.00 | 0.00 | 73 | 1013.5 |
| 20260507152508 | 66 | 80 | 7.0 | 11.0 | 0.00 | 0.00 | 0.00 | 73 | 1013.4 |
| 20260507151505 | 66 | 83 | 9.0 | 14.0 | 0.00 | 0.00 | 0.00 | 71 | 1013.4 |
| 20260507150502 | 65 | 73 | 11.0 | 14.0 | 0.00 | 0.00 | 0.00 | 75 | 1013.5 |
| 20260507145458 | 66 | 76 | 9.0 | 13.0 | 0.00 | 0.00 | 0.00 | 76 | 1013.5 |
| 20260507144457 | 66 | 81 | 10.0 | 15.0 | 0.00 | 0.00 | 0.00 | 75 | 1013.6 |
| 20260507143452 | 66 | 99 | 8.0 | 13.0 | 0.00 | 0.00 | 0.00 | 75 | 1013.6 |
| 20260507142450 | 67 | 69 | 4.0 | 11.0 | 0.00 | 0.00 | 0.00 | 76 | 1013.8 |
| 20260507141446 | 66 | 45 | 6.0 | 13.0 | 0.00 | 0.00 | 0.00 | 75 | 1013.9 |
| 20260507140442 | 67 | 57 | 5.0 | 14.0 | 0.00 | 0.00 | 0.00 | 74 | 1013.9 |
| 20260507135440 | 67 | 45 | 8.0 | 15.0 | 0.00 | 0.00 | 0.00 | 72 | 1013.9 |
| 20260507134436 | 67 | 74 | 6.0 | 11.0 | 0.00 | 0.00 | 0.00 | 72 | 1013.9 |
| 20260507133433 | 67 | 45 | 5.0 | 9.0 | 0.00 | 0.00 | 0.00 | 72 | 1014.0 |
| 20260507132430 | 68 | 99 | 8.0 | 17.0 | 0.00 | 0.00 | 0.00 | 67 | 1014.1 |
| 20260507131426 | 68 | 51 | 6.0 | 11.0 | 0.00 | 0.00 | 0.00 | 62 | 1014.0 |
| 20260507130423 | 67 | 65 | 4.0 | 9.0 | 0.00 | 0.00 | 0.00 | 63 | 1014.2 |
| 20260507125420 | 68 | 58 | 5.0 | 17.0 | 0.00 | 0.00 | 0.00 | 65 | 1014.2 |
| 20260507124517 | 66 | 60 | 8.0 | 13.0 | 0.00 | 0.00 | 0.00 | 67 | 1014.4 |
| 20260507123513 | 66 | 28 | 3.0 | 4.0 | 0.00 | 0.00 | 0.00 | 66 | 1014.4 |
| 20260507122530 | 66 | 60 | 4.0 | 8.0 | 0.00 | 0.00 | 0.00 | 70 | 1014.4 |
| 20260507121507 | 65 | 41 | 4.0 | 6.0 | 0.00 | 0.00 | 0.00 | 73 | 1014.6 |
| 20260507120504 | 64 | 45 | 5.0 | 9.0 | 0.00 | 0.00 | 0.00 | 76 | 1014.7 |
| 20260507115501 | 64 | 45 | 3.0 | 7.0 | 0.00 | 0.00 | 0.00 | 77 | 1015.0 |
| 20260507114457 | 64 | 96 | 7.0 | 11.0 | 0.00 | 0.00 | 0.00 | 76 | 1015.1 |
| 20260507113454 | 64 | 23 | 4.0 | 9.0 | 0.00 | 0.00 | 0.00 | 77 | 1015.1 |
| 20260507112451 | 64 | 29 | 5.0 | 11.0 | 0.00 | 0.00 | 0.00 | 76 | 1015.2 |